Overview Statistics Trail Chart Weather Telemetry Raw packets
 

This is the latest recevied weather packets stored in our database for station/object N7YET. If no packets are shown the sender has not sent any weather packets the latest 10 day(s).

<< 3 4 5 6 7 8 9 >>
Time Temp. Humidity Pressure Rain* Wind** Luminosity Snow
1788544813 20.56° C 37% 1010.9 hPa 0 mm - - -
1788544213 20° C 37% 1010.9 hPa 0 mm - - -
1788543613 20° C 40% 1010.9 hPa 0 mm - - -
1788543013 18.89° C 41% 1010.9 hPa 0 mm - - -
1788542413 18.89° C 40% 1009.9 hPa 0 mm - - -
1788541813 18.89° C 41% 1009.9 hPa 0 mm - - -
1788541213 18.33° C 41% 1009.9 hPa 0 mm - - -
1788540613 18.33° C 41% 1009.9 hPa 0 mm - - -
1788540013 17.78° C 41% 1009.9 hPa 0 mm - - -
1788539413 18.33° C 40% 1009.9 hPa 0 mm - - -
1788538813 18.33° C 41% 1009.9 hPa 0 mm - - -
1788538234 18.33° C 41% 1009.9 hPa 0 mm - - -
1788537613 18.33° C 42% 1009.9 hPa 0 mm - - -
1788537013 17.78° C 44% 1009.9 hPa 0 mm - - -
1788536413 17.22° C 44% 1009.9 hPa 0 mm - - -
1788535813 16.67° C 44% 1009.9 hPa 0 mm - - -
1788535222 16.11° C 44% 1009.9 hPa 0 mm - - -
1788534613 16.11° C 43% 1009.9 hPa 0 mm - - -
1788534013 15° C 44% 1008.9 hPa 0 mm - - -
1788533413 14.44° C 44% 1008.9 hPa 0 mm - - -
1788532813 13.89° C 44% 1008.9 hPa 0 mm - - -
1788532213 13.33° C 45% 1008.9 hPa 0 mm - - -
1788531613 13.33° C 46% 1007.9 hPa 0 mm - - -
1788531013 11.67° C 50% 1007.9 hPa 0 mm - - -
1788530413 11.11° C 52% 1007.9 hPa 0 mm - - -

* Rain latest hour (hover to see other rain measurements)
** Current wind speed in m/s (hover to see current wind gust speed)